Flag for Morocco Weather past 2 weeks in Rabat, Morocco

Now
63 °F

Fog.


Feels Like: 63 °F
Forecast: 58 / 75 °F
Wind: 2 mph from North

Location: Rabat-Sale

Current Time: Oct 25, 2014 at 2:58:19 AM

Latest Report: Oct 25, 2014 at 2:30 AM


Visibility: 2 mi

Pressure: 29.95 "Hg

Humidity: 94%

Dew point: 61 °F

Location of RabatLocation

Historic Weather in Rabat — Graph

°F

Rabat temperature yesterday

Maximum temperature yesterday: 75 °F (at 12:00 PM)
Minimum temperature yesterday: 57 °F (at 1:00 AM)
Average temperature yesterday: 67 °F

Past Weeks' High & Low Weather Summary

 TemperatureHumidityPressure
High99 °F (Oct 19, 2:00 PM)100% (Oct 16, 8:00 AM)30.15 "Hg (Oct 16, 8:00 AM)
Low55 °F (Oct 13, 7:30 AM)9% (Oct 22, 3:30 PM)29.83 "Hg (Oct 11, 11:00 AM)
Average70 °F70%29.99 "Hg
* Reported Oct 10 1:00 AM — Oct 25 1:30 AM, Rabat, Weather by CustomWeather, © 2014

Note: Actual official high and low records may vary slightly from our data, if they occured in-between our weather recording intervals... More about our weather records

Advertising

Rabat weather history for previous 24 hours

 ConditionsComfort  
Time TempWeatherWind HumidityBarometerVisibility
1:30 AM
Oct 25
63 °FFog.5 mph94%29.98 "Hg2 mi
1:00 AM64 °FFog.6 mph94%29.98 "Hg2 mi
12:30 AM63 °FFog.5 mph94%29.98 "Hg2 mi
12:00 AM63 °FFog.5 mph94%29.98 "Hg2 mi
11:30 PM
Oct 24
63 °FFog.3 mph94%29.98 "Hg2 mi
11:00 PM64 °FFog.2 mph94%29.98 "Hg2 mi
10:30 PM64 °FFog.3 mph94%29.98 "Hg2 mi
10:00 PM64 °FFog.2 mph94%29.98 "Hg2 mi
9:30 PM64 °FFog.2 mph94%29.98 "Hg2 mi
9:00 PM64 °FFog.3 mph94%29.95 "Hg2 mi
8:30 PM64 °FFog.3 mph94%29.95 "Hg2 mi
8:00 PM64 °FFog.2 mph88%29.95 "Hg2 mi
7:30 PM66 °FFog.1 mph88%29.95 "Hg2 mi
7:00 PM68 °FFog.5 mph83%29.95 "Hg2 mi
6:30 PM68 °FPartly cloudy.3 mph83%29.92 "Hg3 mi
6:00 PM70 °FPartly cloudy.6 mph78%29.92 "Hg3 mi
5:30 PM72 °FBroken clouds.7 mph78%29.92 "Hg3 mi
5:00 PM72 °FClear.6 mph78%29.92 "Hg3 mi
4:30 PM72 °FClear.8 mph78%29.92 "Hg3 mi
4:00 PM73 °FClear.9 mph69%29.92 "Hg3 mi
3:30 PM73 °FClear.8 mph69%29.92 "Hg3 mi
3:00 PM73 °FClear.7 mph65%29.92 "Hg3 mi
2:30 PM73 °FClear.8 mph65%29.92 "Hg3 mi
2:00 PM73 °FPartly sunny.8 mph65%29.92 "Hg3 mi
1:30 PM73 °FPartly sunny.7 mph61%29.95 "Hg3 mi
1:00 PM75 °FPartly sunny.6 mph57%29.95 "Hg3 mi
12:30 PM73 °FPartly sunny.6 mph65%29.95 "Hg3 mi
12:00 PM75 °FPartly sunny.5 mph61%29.95 "Hg3 mi
11:30 AM73 °FFog.3 mph69%29.98 "Hg2 mi
11:00 AM72 °FFog.2 mph73%29.98 "Hg2 mi
10:30 AM70 °FFog.2 mph78%29.98 "Hg2 mi
10:00 AM64 °FFog.No wind94%29.98 "Hg0 mi
9:30 AM63 °FFog.No wind94%29.98 "Hg0 mi
9:00 AM61 °FFog.2 mph100%29.98 "Hg0 mi
8:30 AM63 °FFog.3 mph94%29.95 "Hg1 mi
8:00 AM63 °FFog.3 mph94%29.95 "Hg1 mi
7:30 AM64 °FFog.7 mph94%29.95 "Hg1 mi
7:00 AM64 °FFog.5 mph94%29.92 "Hg1 mi
6:30 AM66 °FFog.7 mph94%29.92 "Hg1 mi
6:00 AM66 °FFog.7 mph94%29.92 "Hg2 mi
5:30 AM66 °FFog.6 mph94%29.92 "Hg2 mi
5:00 AM66 °FFog.5 mph94%29.92 "Hg2 mi
4:30 AM66 °FFog.7 mph94%29.92 "Hg2 mi
4:00 AM66 °FMild.7 mph94%29.92 "Hg1 mi
3:30 AM66 °FClear.9 mph94%29.95 "Hg1 mi
3:00 AM63 °FClear.5 mph94%29.92 "Hg2 mi
2:30 AM63 °FClear.7 mph94%29.92 "Hg3 mi
2:00 AM59 °FClear.6 mph94%29.92 "Hg5 mi
Weather by CustomWeather, © 2014

See weather overviewHow to use our weather pages